Overview Statistics Trail Chart Weather Telemetry Raw packets
 

This is the latest recevied weather packets stored in our database for station/object W5ALL-WX. If no packets are shown the sender has not sent any weather packets the latest 10 day(s).

<< 53 54 55 56 57 58 59 >>
Time Temp. Humidity Pressure Rain* Wind** Luminosity Snow
1777636200 11.67° C 98% 1011.5 hPa 0.51 mm - - -
1777635900 11.67° C 97% 1011.7 hPa 1.02 mm - - -
1777635600 11.67° C 96% 1011.7 hPa 1.52 mm - - -
1777635300 11.67° C 96% 1011.7 hPa 1.52 mm - - -
1777635000 11.67° C 94% 1011.5 hPa 1.78 mm - - -
1777634700 11.67° C 94% 1011.7 hPa 2.03 mm - - -
1777634400 11.67° C 94% 1011.7 hPa 2.29 mm - - -
1777634100 11.67° C 95% 1011.5 hPa 2.29 mm - - -
1777633800 11.67° C 94% 1011.5 hPa 2.54 mm - - -
1777633500 11.67° C 94% 1011.5 hPa 2.54 mm - - -
1777633200 11.67° C 92% 1011.5 hPa 2.54 mm - - -
1777632784 12.22° C 90% 1011.5 hPa 2.54 mm - - -
1777632484 12.78° C 88% 1011.5 hPa 1.78 mm - - -
1777632184 12.78° C 88% 1011.5 hPa 1.27 mm - - -
1777631894 12.78° C 89% 1011.5 hPa 1.02 mm - - -
1777631584 12.78° C 99% 1011.4 hPa 0.76 mm - - -
1777631284 12.78° C 100% 1011.3 hPa 0.76 mm - - -
1777630984 12.78° C 100% 1011.3 hPa 0.51 mm - - -
1777630684 12.78° C 99% 1011.2 hPa 0.25 mm - - -
1777630384 12.78° C 98% 1011 hPa 0 mm - - -
1777630084 13.33° C 94% 1011 hPa 0 mm - - -
1777629784 13.89° C 87% 1010.8 hPa 0 mm - - -
1777629484 14.44° C 76% 1010.8 hPa 0 mm - - -
1777629184 15° C 69% 1011 hPa 0 mm - - -
1777628884 15° C 64% 1010.8 hPa 0 mm - - -

* Rain latest hour (hover to see other rain measurements)
** Current wind speed in m/s (hover to see current wind gust speed)